Weather History for Kivalina, AK

Change the Weather History Date:

Friday, March 1, 2013

  Actual Average Record
Temperature  
Mean Temperature -23 °F -  
Max Temperature -11 °F - - ()
Min Temperature -35 °F - - ()
Degree Days  
Heating Degree Days 88    
Moisture  
Dew Point -26 °F    
Average Humidity 82    
Maximum Humidity 90    
Minimum Humidity 69    
Precipitation  
Precipitation 0.00 in - - ()
Sea Level Pressure  
Sea Level Pressure 30.07 in    
Wind  
Wind Speed 5 mph (NE)    
Max Wind Speed 9 mph    
Max Gust Speed -    
Visibility 8 miles    
Events      
T = Trace of Precipitation, MM = Missing Value Source: NWS Daily Summary

Daily Weather History Graph

Daily Weather History Graph

Search for Another Location

Airport:

Trip Planner

Search our weather history database for the weather conditions in past years. The results will help you decide how hot, cold, wet, or windy it might be!

Date:

Astronomy

Mar. 01, 2013 Rise Set
Actual Time 9:14 AM AKST 7:08 PM AKST
Civil Twilight 8:18 AM AKST 8:03 PM AKST
Nautical Twilight 7:15 AM AKST 9:07 PM AKST
Astronomical Twilight 6:08 AM AKST 10:14 PM AKST
Moon 12:58 AM AKST (3/1) 8:48 AM AKST (3/1)
Length of Visible Light 11h 45m
Length of Day
9h 53m
Waning Gibbous, 82% of the Moon is Illuminated
Mar 1
Waning Gibbous
Mar 4
Last Quarter
Mar 11
New
Mar 19
First Quarter
Mar 27
Full

Hourly Weather History & Observations

Time (AKST) Temp. Windchill Dew Point Humidity Pressure Visibility Wind Dir Wind Speed Gust Speed Precip Events Conditions
12:53 AM -11.9 °F -29.9 °F -16.1 °F 82% 29.81 in 10.0 mi WSW 9.2 mph - N/A   Clear
1:53 AM -16.1 °F -32.3 °F -18.9 °F 87% 29.84 in 10.0 mi SW 6.9 mph - N/A   Clear
3:53 AM -20.0 °F -33.3 °F -23.1 °F 86% 29.90 in 10.0 mi SW 4.6 mph - N/A   Clear
4:53 AM -18.9 °F -32.0 °F -23.1 °F 81% 29.93 in 10.0 mi SW 4.6 mph - N/A   Clear
5:53 AM -20.9 °F -38.1 °F -24.0 °F 86% 29.95 in 9.0 mi SW 6.9 mph - N/A   Clear
6:53 AM -26.0 °F - -29.9 °F 81% 29.98 in 9.0 mi Calm Calm - N/A   Clear
7:53 AM -35.0 °F - - N/A% 30.00 in 10.0 mi Calm Calm - N/A   Clear
8:29 AM -34.6 °F - - N/A% 30.01 in 10.0 mi Calm Calm - N/A   Partly Cloudy
8:53 AM -35.0 °F -47.8 °F - N/A% 30.02 in 10.0 mi East 3.5 mph - N/A   Clear
9:53 AM -35.0 °F - - N/A% 30.04 in 8.0 mi Calm Calm - N/A   Clear
10:53 AM -35.0 °F -47.8 °F - N/A% 30.07 in 8.0 mi ENE 3.5 mph - N/A   Clear
11:53 AM -33.0 °F -54.3 °F - N/A% 30.09 in 8.0 mi East 8.1 mph - N/A   Clear
12:53 PM -29.0 °F -43.8 °F -33.0 °F 81% 30.11 in 8.0 mi NE 4.6 mph - N/A   Clear
1:53 PM -26.0 °F -37.5 °F -32.1 °F 73% 30.12 in 9.0 mi NE 3.5 mph - N/A   Clear
2:53 PM -24.0 °F - -26.0 °F 90% 30.13 in 8.0 mi Calm Calm - N/A   Clear
3:51 PM -20.2 °F - -23.8 °F 83% 30.14 in 1.8 mi Calm Calm - 0.00 in   Partly Cloudy
3:53 PM -20.0 °F - -24.0 °F 82% 30.14 in 1.0 mi Calm Calm - 0.00 in   Mist
4:00 PM -20.2 °F - -27.4 °F 69% 30.13 in 0.8 mi Calm Calm - N/A   Haze
4:04 PM -22.0 °F - -27.4 °F 76% 30.13 in 2.5 mi Calm Calm - N/A   Haze
4:11 PM -20.2 °F -30.9 °F -25.6 °F 76% 30.14 in 8.0 mi WNW 3.5 mph - N/A   Clear
4:53 PM -22.0 °F -35.6 °F -24.0 °F 90% 30.14 in 8.0 mi WNW 4.6 mph - N/A   Clear
5:53 PM -20.0 °F -37.1 °F -23.1 °F 86% 30.14 in 7.0 mi WNW 6.9 mph - N/A   Clear
6:53 PM -25.1 °F -43.1 °F -29.0 °F 82% 30.13 in 8.0 mi East 6.9 mph - N/A   Clear
7:53 PM -25.1 °F -39.1 °F -29.0 °F 82% 30.14 in 10.0 mi East 4.6 mph - N/A   Clear
8:53 PM -27.0 °F -38.7 °F -31.0 °F 81% 30.14 in 10.0 mi NNE 3.5 mph - N/A   Clear
9:53 PM -26.0 °F -40.2 °F -31.0 °F 77% 30.15 in 10.0 mi NNE 4.6 mph - N/A   Clear
10:53 PM -27.9 °F -42.5 °F -32.1 °F 81% 30.16 in 10.0 mi NE 4.6 mph - N/A   Clear
11:53 PM -33.0 °F -48.4 °F - N/A% 30.17 in 10.0 mi ENE 4.6 mph - N/A   Clear